TimeEDT,TemperatureF,Dew PointF,Humidity,Sea Level PressureIn,VisibilityMPH,Wind Direction,Wind SpeedMPH,Gust SpeedMPH,PrecipitationIn,Events,Conditions,WindDirDegrees,DateUTC
12:15 AM,50.0,17.6,28,30.05,10.0,Calm,Calm,-,N/A,,Clear,0,2013-03-20 04:15:00
12:35 AM,48.2,17.6,30,30.05,10.0,North,4.6,-,N/A,,Clear,350,2013-03-20 04:35:00
12:55 AM,48.2,17.6,30,30.05,10.0,North,4.6,-,N/A,,Clear,350,2013-03-20 04:55:00
1:15 AM,48.2,15.8,27,30.05,10.0,North,3.5,-,N/A,,Clear,360,2013-03-20 05:15:00
1:35 AM,42.8,24.8,49,30.06,10.0,Calm,Calm,-,N/A,,Clear,0,2013-03-20 05:35:00
1:55 AM,46.4,15.8,29,30.06,10.0,North,4.6,-,N/A,,Clear,350,2013-03-20 05:55:00
2:15 AM,44.6,19.4,37,30.05,10.0,North,3.5,-,N/A,,Clear,360,2013-03-20 06:15:00
2:35 AM,41.0,26.6,57,30.05,10.0,North,3.5,-,N/A,,Clear,10,2013-03-20 06:35:00
2:55 AM,39.2,24.8,56,30.05,10.0,Calm,Calm,-,N/A,,Clear,0,2013-03-20 06:55:00
3:15 AM,37.4,24.8,60,30.05,10.0,North,3.5,-,N/A,,Clear,10,2013-03-20 07:15:00
3:35 AM,39.2,23.0,52,30.04,10.0,NNE,3.5,-,N/A,,Clear,20,2013-03-20 07:35:00
3:55 AM,37.4,26.6,65,30.04,10.0,Calm,Calm,-,N/A,,Clear,0,2013-03-20 07:55:00
4:15 AM,35.6,26.6,70,30.04,10.0,Calm,Calm,-,N/A,,Clear,0,2013-03-20 08:15:00
4:35 AM,35.6,23.0,60,30.04,10.0,Calm,Calm,-,N/A,,Clear,0,2013-03-20 08:35:00
4:55 AM,33.8,23.0,65,30.04,10.0,Calm,Calm,-,N/A,,Clear,0,2013-03-20 08:55:00
5:15 AM,33.8,24.8,70,30.04,10.0,Calm,Calm,-,N/A,,Clear,0,2013-03-20 09:15:00
5:35 AM,33.8,28.4,81,30.04,10.0,Calm,Calm,-,N/A,,Clear,0,2013-03-20 09:35:00
5:55 AM,33.8,28.4,81,30.04,10.0,Calm,Calm,-,N/A,,Clear,0,2013-03-20 09:55:00
6:15 AM,32.0,28.4,87,30.05,10.0,Calm,Calm,-,N/A,,Clear,0,2013-03-20 10:15:00
6:35 AM,32.0,28.4,87,30.06,10.0,Calm,Calm,-,N/A,,Clear,0,2013-03-20 10:35:00
6:55 AM,32.0,30.2,93,30.07,10.0,Calm,Calm,-,N/A,,Clear,0,2013-03-20 10:55:00
7:15 AM,33.8,30.2,87,30.08,10.0,Calm,Calm,-,N/A,,Clear,0,2013-03-20 11:15:00
7:35 AM,33.8,32.0,93,30.09,10.0,Calm,Calm,-,N/A,,Clear,0,2013-03-20 11:35:00
8:15 AM,35.6,32.0,87,30.10,10.0,Calm,Calm,-,N/A,,Partly Cloudy,0,2013-03-20 12:15:00
8:35 AM,37.4,32.0,81,30.11,10.0,Calm,Calm,-,N/A,,Clear,0,2013-03-20 12:35:00
8:55 AM,39.2,35.6,87,30.12,10.0,Calm,Calm,-,N/A,,Clear,0,2013-03-20 12:55:00
9:15 AM,41.0,35.6,81,30.13,10.0,Calm,Calm,-,N/A,,Clear,0,2013-03-20 13:15:00
9:35 AM,42.8,32.0,66,30.13,10.0,Calm,Calm,-,N/A,,Clear,0,2013-03-20 13:35:00
10:15 AM,46.4,17.6,32,30.13,10.0,Calm,Calm,-,N/A,,Clear,0,2013-03-20 14:15:00
10:35 AM,48.2,15.8,27,30.13,10.0,Calm,Calm,-,N/A,,Clear,0,2013-03-20 14:35:00
10:55 AM,50.0,14.0,24,30.12,10.0,North,6.9,-,N/A,,Partly Cloudy,10,2013-03-20 14:55:00
11:15 AM,48.2,12.2,24,30.12,10.0,NNE,4.6,-,N/A,,Partly Cloudy,30,2013-03-20 15:15:00
11:35 AM,50.0,14.0,24,30.12,10.0,North,5.8,-,N/A,,Partly Cloudy,10,2013-03-20 15:35:00
11:55 AM,50.0,10.4,20,30.12,10.0,Calm,Calm,-,N/A,,Partly Cloudy,0,2013-03-20 15:55:00
12:15 PM,50.0,8.6,19,30.12,10.0,Calm,Calm,-,N/A,,Scattered Clouds,0,2013-03-20 16:15:00
12:35 PM,51.8,8.6,18,30.10,10.0,Calm,Calm,-,N/A,,Scattered Clouds,0,2013-03-20 16:35:00
12:55 PM,51.8,10.4,19,30.09,10.0,West,3.5,-,N/A,,Partly Cloudy,280,2013-03-20 16:55:00
1:15 PM,53.6,12.2,19,30.08,10.0,Calm,Calm,-,N/A,,Partly Cloudy,0,2013-03-20 17:15:00
1:35 PM,53.6,12.2,19,30.06,10.0,West,4.6,-,N/A,,Partly Cloudy,270,2013-03-20 17:35:00
1:55 PM,55.4,12.2,18,30.05,10.0,West,4.6,-,N/A,,Partly Cloudy,260,2013-03-20 17:55:00
2:15 PM,55.4,14.0,20,30.03,10.0,WSW,5.8,-,N/A,,Scattered Clouds,240,2013-03-20 18:15:00
2:35 PM,55.4,14.0,20,30.01,10.0,Calm,Calm,-,N/A,,Scattered Clouds,0,2013-03-20 18:35:00
2:55 PM,55.4,10.4,17,30.00,10.0,Calm,Calm,-,N/A,,Scattered Clouds,0,2013-03-20 18:55:00
3:15 PM,55.4,15.8,21,29.97,10.0,West,6.9,-,N/A,,Scattered Clouds,260,2013-03-20 19:15:00
3:35 PM,55.4,14.0,20,29.96,10.0,Calm,Calm,-,N/A,,Scattered Clouds,0,2013-03-20 19:35:00
3:55 PM,55.4,14.0,20,29.94,10.0,Calm,Calm,-,N/A,,Scattered Clouds,0,2013-03-20 19:55:00
4:15 PM,55.4,14.0,20,29.92,10.0,SW,3.5,-,N/A,,Mostly Cloudy,220,2013-03-20 20:15:00
4:35 PM,55.4,17.6,23,29.91,10.0,Calm,Calm,-,N/A,,Overcast,0,2013-03-20 20:35:00
4:55 PM,57.2,15.8,20,29.89,10.0,SW,4.6,-,N/A,,Mostly Cloudy,230,2013-03-20 20:55:00
5:15 PM,55.4,15.8,21,29.89,10.0,Calm,Calm,-,N/A,,Mostly Cloudy,0,2013-03-20 21:15:00
5:35 PM,55.4,19.4,25,29.89,10.0,West,4.6,-,N/A,,Mostly Cloudy,260,2013-03-20 21:35:00
5:55 PM,57.2,19.4,23,29.88,10.0,WSW,4.6,-,N/A,,Partly Cloudy,240,2013-03-20 21:55:00
6:35 PM,55.4,17.6,23,29.88,10.0,WSW,9.2,-,N/A,,Clear,250,2013-03-20 22:35:00
6:55 PM,55.4,17.6,23,29.87,10.0,SW,5.8,-,N/A,,Clear,220,2013-03-20 22:55:00
7:15 PM,55.4,17.6,23,29.86,10.0,SW,4.6,-,N/A,,Clear,220,2013-03-20 23:15:00
7:35 PM,53.6,19.4,26,29.86,10.0,Calm,Calm,-,N/A,,Clear,0,2013-03-20 23:35:00
7:55 PM,48.2,23.0,37,29.86,10.0,Calm,Calm,-,N/A,,Clear,0,2013-03-20 23:55:00
8:15 PM,44.6,28.4,53,29.85,10.0,Calm,Calm,-,N/A,,Clear,0,2013-03-21 00:15:00
8:35 PM,41.0,28.4,61,29.84,10.0,Calm,Calm,-,N/A,,Clear,0,2013-03-21 00:35:00
8:55 PM,39.2,30.2,70,29.84,10.0,Calm,Calm,-,N/A,,Clear,0,2013-03-21 00:55:00
9:15 PM,37.4,30.2,75,29.83,10.0,Calm,Calm,-,N/A,,Clear,0,2013-03-21 01:15:00
9:35 PM,37.4,30.2,75,29.83,10.0,Calm,Calm,-,N/A,,Clear,0,2013-03-21 01:35:00
9:55 PM,37.4,30.2,75,29.82,10.0,Calm,Calm,-,N/A,,Clear,0,2013-03-21 01:55:00
10:15 PM,39.2,28.4,65,29.81,10.0,SE,3.5,-,N/A,,Clear,140,2013-03-21 02:15:00
10:35 PM,37.4,30.2,75,29.81,10.0,Calm,Calm,-,N/A,,Clear,0,2013-03-21 02:35:00
10:55 PM,37.4,32.0,81,29.81,10.0,Calm,Calm,-,N/A,,Partly Cloudy,0,2013-03-21 02:55:00
11:15 PM,39.2,26.6,61,29.81,10.0,Calm,Calm,-,N/A,,Clear,0,2013-03-21 03:15:00
11:35 PM,41.0,26.6,57,29.80,10.0,West,4.6,-,N/A,,Partly Cloudy,280,2013-03-21 03:35:00
11:55 PM,41.0,26.6,57,29.81,10.0,WSW,4.6,-,N/A,,Partly Cloudy,250,2013-03-21 03:55:00